Year,Month,Day,Hour,Minute,Value (Times are PST for temperature in C)
2015,02,22,00,00,5.60
2015,02,22,00,01,5.50
2015,02,22,00,02,5.60
2015,02,22,00,03,5.50
2015,02,22,00,04,5.60
2015,02,22,00,05,5.60
2015,02,22,00,06,5.60
2015,02,22,00,07,5.70
2015,02,22,00,08,5.70
2015,02,22,00,09,5.70
2015,02,22,00,10,5.80
2015,02,22,00,11,5.80
2015,02,22,00,12,5.80
2015,02,22,00,13,5.80
2015,02,22,00,14,5.90
2015,02,22,00,15,5.90
2015,02,22,00,16,5.90
2015,02,22,00,17,5.90
2015,02,22,00,18,5.90
2015,02,22,00,19,5.90
2015,02,22,00,20,5.90
2015,02,22,00,21,5.90
2015,02,22,00,22,5.90
2015,02,22,00,23,5.90
2015,02,22,00,24,5.90
2015,02,22,00,25,5.90
2015,02,22,00,26,5.90
2015,02,22,00,27,5.90
2015,02,22,00,28,5.80
2015,02,22,00,29,5.80
2015,02,22,00,30,5.70
2015,02,22,00,31,5.60
2015,02,22,00,32,5.50
2015,02,22,00,33,5.50
2015,02,22,00,34,5.40
2015,02,22,00,35,5.40
2015,02,22,00,36,5.40
2015,02,22,00,37,5.40
2015,02,22,00,38,5.40
2015,02,22,00,39,5.40
2015,02,22,00,40,5.40
2015,02,22,00,41,5.30
2015,02,22,00,42,5.30
2015,02,22,00,43,5.30
2015,02,22,00,44,5.20
2015,02,22,00,45,5.20
2015,02,22,00,46,5.20
2015,02,22,00,47,5.10
2015,02,22,00,48,5.10
2015,02,22,00,49,5.10
2015,02,22,00,50,5.00
2015,02,22,00,51,4.90
2015,02,22,00,52,4.80
2015,02,22,00,53,4.70
2015,02,22,00,54,4.50
2015,02,22,00,55,4.40
2015,02,22,00,56,4.40
2015,02,22,00,57,4.30
2015,02,22,00,58,4.30
2015,02,22,00,59,4.30
2015,02,22,01,00,4.30
2015,02,22,01,01,4.20
2015,02,22,01,02,4.20
2015,02,22,01,03,4.20
2015,02,22,01,04,4.20
2015,02,22,01,05,4.20
2015,02,22,01,06,4.10
2015,02,22,01,07,4.10
2015,02,22,01,08,4.00
2015,02,22,01,09,4.00
2015,02,22,01,10,3.90
2015,02,22,01,11,3.90
2015,02,22,01,12,3.90
2015,02,22,01,13,3.80
2015,02,22,01,14,3.80
2015,02,22,01,15,3.80
2015,02,22,01,16,3.90
2015,02,22,01,17,3.90
2015,02,22,01,18,3.90
2015,02,22,01,19,3.90
2015,02,22,01,20,3.90
2015,02,22,01,21,3.90
2015,02,22,01,22,3.90
2015,02,22,01,23,3.90
2015,02,22,01,24,3.90
2015,02,22,01,25,3.90
2015,02,22,01,26,3.90
2015,02,22,01,27,3.90
2015,02,22,01,28,3.90
2015,02,22,01,29,3.90
2015,02,22,01,30,3.90
2015,02,22,01,31,3.90
2015,02,22,01,32,3.90
2015,02,22,01,33,3.90
2015,02,22,01,34,3.90
2015,02,22,01,35,3.90
2015,02,22,01,36,3.90
2015,02,22,01,37,4.00
2015,02,22,01,38,4.00
2015,02,22,01,39,3.90
2015,02,22,01,40,3.90
2015,02,22,01,41,3.90
2015,02,22,01,42,3.90
2015,02,22,01,43,3.90
2015,02,22,01,44,3.90
2015,02,22,01,45,3.90
2015,02,22,01,46,3.90
2015,02,22,01,47,3.90
2015,02,22,01,48,3.90
2015,02,22,01,49,3.90
2015,02,22,01,50,4.10
2015,02,22,01,51,4.30
2015,02,22,01,52,4.60
2015,02,22,01,53,5.00
2015,02,22,01,54,5.20
2015,02,22,01,55,5.40
2015,02,22,01,56,5.70
2015,02,22,01,57,6.00
2015,02,22,01,58,6.20
2015,02,22,01,59,6.40
2015,02,22,02,00,6.60
2015,02,22,02,01,6.70
2015,02,22,02,02,6.90
2015,02,22,02,03,7.00
2015,02,22,02,04,7.10
2015,02,22,02,05,7.20
2015,02,22,02,06,7.20
2015,02,22,02,07,7.20
2015,02,22,02,08,7.10
2015,02,22,02,09,7.00
2015,02,22,02,10,6.80
2015,02,22,02,11,6.60
2015,02,22,02,12,6.60
2015,02,22,02,13,6.50
2015,02,22,02,14,6.50
2015,02,22,02,15,6.50
2015,02,22,02,16,6.50
2015,02,22,02,17,6.40
2015,02,22,02,18,6.30
2015,02,22,02,19,6.30
2015,02,22,02,20,6.20
2015,02,22,02,21,6.00
2015,02,22,02,22,5.90
2015,02,22,02,23,5.90
2015,02,22,02,24,5.80
2015,02,22,02,25,5.70
2015,02,22,02,26,5.60
2015,02,22,02,27,5.50
2015,02,22,02,28,5.50
2015,02,22,02,29,5.40
2015,02,22,02,30,5.30
2015,02,22,02,31,5.20
2015,02,22,02,32,5.20
2015,02,22,02,33,5.10
2015,02,22,02,34,5.10
2015,02,22,02,35,5.10
2015,02,22,02,36,5.10
2015,02,22,02,37,5.10
2015,02,22,02,38,5.00
2015,02,22,02,39,5.00
2015,02,22,02,40,4.90
2015,02,22,02,41,4.90
2015,02,22,02,42,4.90
2015,02,22,02,43,4.80
2015,02,22,02,44,4.80
2015,02,22,02,45,4.80
2015,02,22,02,46,4.80
2015,02,22,02,47,4.80
2015,02,22,02,48,4.90
2015,02,22,02,49,4.90
2015,02,22,02,50,4.90
2015,02,22,02,51,4.90
2015,02,22,02,52,4.90
2015,02,22,02,53,4.90
2015,02,22,02,54,4.90
2015,02,22,02,55,4.80
2015,02,22,02,56,4.80
2015,02,22,02,57,4.80
2015,02,22,02,58,4.70
2015,02,22,02,59,4.70
2015,02,22,03,00,4.60
2015,02,22,03,01,4.60
2015,02,22,03,02,4.50
2015,02,22,03,03,4.50
2015,02,22,03,06,4.40
2015,02,22,03,07,4.40
2015,02,22,03,08,4.40
2015,02,22,03,09,4.30
2015,02,22,03,10,4.30
2015,02,22,03,11,4.30
2015,02,22,03,12,4.30
2015,02,22,03,13,4.30
2015,02,22,03,14,4.30
2015,02,22,03,15,4.30
2015,02,22,03,16,4.30
2015,02,22,03,17,4.20
2015,02,22,03,18,4.20
2015,02,22,03,19,4.10
2015,02,22,03,20,4.10
2015,02,22,03,21,4.00
2015,02,22,03,22,4.00
2015,02,22,03,23,3.90
2015,02,22,03,24,3.90
2015,02,22,03,25,3.90
2015,02,22,03,26,3.90
2015,02,22,03,27,3.90
2015,02,22,03,28,3.90
2015,02,22,03,29,3.90
2015,02,22,03,30,3.90
2015,02,22,03,31,3.90
2015,02,22,03,32,3.80
2015,02,22,03,33,3.80
2015,02,22,03,34,3.80
2015,02,22,03,35,3.80
2015,02,22,03,36,3.80
2015,02,22,03,37,3.70
2015,02,22,03,38,3.70
2015,02,22,03,39,3.70
2015,02,22,03,40,3.70
2015,02,22,03,41,3.70
2015,02,22,03,42,3.70
2015,02,22,03,43,3.60
2015,02,22,03,44,3.60
2015,02,22,03,45,3.60
2015,02,22,03,46,3.60
2015,02,22,03,47,3.60
2015,02,22,03,48,3.60
2015,02,22,03,49,3.50
2015,02,22,03,50,3.50
2015,02,22,03,51,3.50
2015,02,22,03,52,3.40
2015,02,22,03,53,3.40
2015,02,22,03,54,3.40
2015,02,22,03,55,3.40
2015,02,22,03,56,3.30
2015,02,22,03,57,3.30
2015,02,22,03,58,3.20
2015,02,22,03,59,3.20
2015,02,22,04,00,3.20
2015,02,22,04,01,3.10
2015,02,22,04,02,3.10
2015,02,22,04,03,3.10
2015,02,22,04,04,3.10
2015,02,22,04,05,3.10
2015,02,22,04,06,3.10
2015,02,22,04,07,3.10
2015,02,22,04,08,3.10
2015,02,22,04,09,3.10
2015,02,22,04,10,3.10
2015,02,22,04,11,3.10
2015,02,22,04,12,3.10
2015,02,22,04,13,3.10
2015,02,22,04,14,3.20
2015,02,22,04,15,3.20
2015,02,22,04,16,3.20
2015,02,22,04,17,3.20
2015,02,22,04,18,3.30
2015,02,22,04,19,3.30
2015,02,22,04,20,3.40
2015,02,22,04,21,3.50
2015,02,22,04,22,3.60
2015,02,22,04,23,3.60
2015,02,22,04,24,3.70
2015,02,22,04,25,3.70
2015,02,22,04,26,3.80
2015,02,22,04,27,3.70
2015,02,22,04,28,3.70
2015,02,22,04,29,3.70
2015,02,22,04,30,3.70
2015,02,22,04,31,3.70
2015,02,22,04,32,3.70
2015,02,22,04,33,3.60
2015,02,22,04,34,3.60
2015,02,22,04,35,3.70
2015,02,22,04,36,3.70
2015,02,22,04,37,3.70
2015,02,22,04,38,3.70
2015,02,22,04,39,3.70
2015,02,22,04,40,3.70
2015,02,22,04,41,3.70
2015,02,22,04,42,3.80
2015,02,22,04,43,3.80
2015,02,22,04,44,3.80
2015,02,22,04,45,3.80
2015,02,22,04,46,3.80
2015,02,22,04,47,3.80
2015,02,22,04,48,3.90
2015,02,22,04,49,3.90
2015,02,22,04,50,4.00
2015,02,22,04,51,4.00
2015,02,22,04,52,4.00
2015,02,22,04,53,4.10
2015,02,22,04,54,4.10
2015,02,22,04,55,4.10
2015,02,22,04,56,4.10
2015,02,22,04,57,4.10
2015,02,22,04,58,4.10
2015,02,22,04,59,4.10
2015,02,22,05,00,4.10
2015,02,22,05,01,4.10
2015,02,22,05,02,4.00
2015,02,22,05,03,4.00
2015,02,22,05,04,4.00
2015,02,22,05,05,4.00
2015,02,22,05,06,4.00
2015,02,22,05,07,4.00
2015,02,22,05,08,4.00
2015,02,22,05,09,4.00
2015,02,22,05,10,4.00
2015,02,22,05,11,4.00
2015,02,22,05,12,4.00
2015,02,22,05,13,4.00
2015,02,22,05,14,4.00
2015,02,22,05,15,4.10
2015,02,22,05,16,4.10
2015,02,22,05,17,4.10
2015,02,22,05,18,4.10
2015,02,22,05,19,4.10
2015,02,22,05,20,4.10
2015,02,22,05,21,4.10
2015,02,22,05,22,4.10
2015,02,22,05,23,4.10
2015,02,22,05,24,4.00
2015,02,22,05,25,4.00
2015,02,22,05,26,4.00
2015,02,22,05,27,4.00
2015,02,22,05,28,4.00
2015,02,22,05,29,4.00
2015,02,22,05,30,4.00
2015,02,22,05,31,3.90
2015,02,22,05,32,3.90
2015,02,22,05,33,3.90
2015,02,22,05,34,3.90
2015,02,22,05,35,3.90
2015,02,22,05,36,3.90
2015,02,22,05,37,3.90
2015,02,22,05,38,3.90
2015,02,22,05,39,3.90
2015,02,22,05,40,4.00
2015,02,22,05,41,4.00
2015,02,22,05,42,4.00
2015,02,22,05,43,4.00
2015,02,22,05,44,4.00
2015,02,22,05,45,4.00
2015,02,22,05,46,4.00
2015,02,22,05,47,3.90
2015,02,22,05,48,3.90
2015,02,22,05,49,3.90
2015,02,22,05,50,3.90
2015,02,22,05,51,4.00
2015,02,22,05,52,4.00
2015,02,22,05,53,4.00
2015,02,22,05,54,4.10
2015,02,22,05,55,4.10
2015,02,22,05,56,4.10
2015,02,22,05,57,4.10
2015,02,22,05,58,4.10
2015,02,22,05,59,4.10
2015,02,22,06,00,4.00
2015,02,22,06,01,4.00
2015,02,22,06,02,3.90
2015,02,22,06,03,3.90
2015,02,22,06,04,3.90
2015,02,22,06,05,3.80
2015,02,22,06,06,3.80
2015,02,22,06,07,3.70
2015,02,22,06,08,3.70
2015,02,22,06,09,3.70
2015,02,22,06,10,3.70
2015,02,22,06,11,3.70
2015,02,22,06,12,3.80
2015,02,22,06,13,3.80
2015,02,22,06,14,3.80
2015,02,22,06,15,3.70
2015,02,22,06,16,3.80
2015,02,22,06,17,3.80
2015,02,22,06,18,3.80
2015,02,22,06,19,3.80
2015,02,22,06,20,3.80
2015,02,22,06,21,3.80
2015,02,22,06,22,3.80
2015,02,22,06,23,3.80
2015,02,22,06,24,3.80
2015,02,22,06,25,3.80
2015,02,22,06,26,3.80
2015,02,22,06,27,3.80
2015,02,22,06,28,3.80
2015,02,22,06,29,3.90
2015,02,22,06,30,3.90
2015,02,22,06,31,3.90
2015,02,22,06,32,4.00
2015,02,22,06,33,4.00
2015,02,22,06,34,4.00
2015,02,22,06,35,4.10
2015,02,22,06,36,4.10
2015,02,22,06,37,4.10
2015,02,22,06,38,4.10
2015,02,22,06,39,4.10
2015,02,22,06,40,4.10
2015,02,22,06,41,4.20
2015,02,22,06,42,4.20
2015,02,22,06,43,4.20
2015,02,22,06,44,4.20
2015,02,22,06,45,4.20
2015,02,22,06,46,4.20
2015,02,22,06,47,4.10
2015,02,22,06,48,4.10
2015,02,22,06,49,4.10
2015,02,22,06,50,4.00
2015,02,22,06,51,4.00
2015,02,22,06,52,4.00
2015,02,22,06,53,4.00
2015,02,22,06,54,4.00
2015,02,22,06,55,4.00
2015,02,22,06,56,4.00
2015,02,22,06,57,4.00
2015,02,22,06,58,4.00
2015,02,22,06,59,4.00
2015,02,22,07,00,4.00
2015,02,22,07,01,4.00
2015,02,22,07,02,3.90
2015,02,22,07,03,3.90
2015,02,22,07,04,3.90
2015,02,22,07,05,3.80
2015,02,22,07,06,3.80
2015,02,22,07,07,3.80
2015,02,22,07,08,3.70
2015,02,22,07,09,3.70
2015,02,22,07,10,3.70
2015,02,22,07,11,3.60
2015,02,22,07,12,3.60
2015,02,22,07,13,3.60
2015,02,22,07,14,3.50
2015,02,22,07,15,3.50
2015,02,22,07,16,3.50
2015,02,22,07,17,3.50
2015,02,22,07,18,3.40
2015,02,22,07,19,3.40
2015,02,22,07,20,3.40
2015,02,22,07,21,3.40
2015,02,22,07,22,3.30
2015,02,22,07,23,3.30
2015,02,22,07,24,3.30
2015,02,22,07,25,3.30
2015,02,22,07,26,3.20
2015,02,22,07,27,3.20
2015,02,22,07,28,3.20
2015,02,22,07,29,3.20
2015,02,22,07,30,3.20
2015,02,22,07,31,3.10
2015,02,22,07,32,3.10
2015,02,22,07,33,3.20
2015,02,22,07,34,3.20
2015,02,22,07,35,3.20
2015,02,22,07,36,3.20
2015,02,22,07,37,3.20
2015,02,22,07,38,3.20
2015,02,22,07,39,3.30
2015,02,22,07,40,3.30
2015,02,22,07,41,3.30
2015,02,22,07,42,3.30
2015,02,22,07,43,3.40
2015,02,22,07,44,3.40
2015,02,22,07,45,3.40
2015,02,22,07,46,3.40
2015,02,22,07,47,3.40
2015,02,22,07,48,3.50
2015,02,22,07,49,3.50
2015,02,22,07,50,3.50
2015,02,22,07,51,3.50
2015,02,22,07,52,3.50
2015,02,22,07,53,3.50
2015,02,22,07,54,3.50
2015,02,22,07,55,3.50
2015,02,22,07,56,3.50
2015,02,22,07,57,3.60
2015,02,22,07,58,3.60
2015,02,22,07,59,3.60
2015,02,22,08,00,3.70
2015,02,22,08,01,3.70
2015,02,22,08,02,3.80
2015,02,22,08,03,3.80
2015,02,22,08,04,3.80
2015,02,22,08,05,3.90
2015,02,22,08,06,3.90
2015,02,22,08,07,4.00
2015,02,22,08,08,4.00
2015,02,22,08,09,4.10
2015,02,22,08,10,4.10
2015,02,22,08,11,4.10
2015,02,22,08,12,4.20
2015,02,22,08,13,4.20
2015,02,22,08,14,4.20
2015,02,22,08,15,4.30
2015,02,22,08,16,4.30
2015,02,22,08,17,4.40
2015,02,22,08,18,4.40
2015,02,22,08,19,4.50
2015,02,22,08,20,4.60
2015,02,22,08,21,4.60
2015,02,22,08,22,4.60
2015,02,22,08,23,4.70
2015,02,22,08,24,4.70
2015,02,22,08,25,4.70
2015,02,22,08,26,4.70
2015,02,22,08,27,4.70
2015,02,22,08,28,4.70
2015,02,22,08,29,4.80
2015,02,22,08,30,4.80
2015,02,22,08,31,4.90
2015,02,22,08,32,5.00
2015,02,22,08,33,5.00
2015,02,22,08,34,5.10
2015,02,22,08,35,5.10
2015,02,22,08,36,5.20
2015,02,22,08,37,5.20
2015,02,22,08,38,5.30
2015,02,22,08,39,5.30
2015,02,22,08,40,5.40
2015,02,22,08,41,5.40
2015,02,22,08,42,5.40
2015,02,22,08,43,5.50
2015,02,22,08,44,5.50
2015,02,22,08,45,5.50
2015,02,22,08,46,5.50
2015,02,22,08,47,5.60
2015,02,22,08,48,5.60
2015,02,22,08,49,5.60
2015,02,22,08,50,5.60
2015,02,22,08,51,5.60
2015,02,22,08,52,5.70
2015,02,22,08,53,5.70
2015,02,22,08,54,5.70
2015,02,22,08,55,5.80
2015,02,22,08,56,5.80
2015,02,22,08,57,5.90
2015,02,22,08,58,6.00
2015,02,22,08,59,6.00
2015,02,22,09,00,6.10
2015,02,22,09,01,6.10
2015,02,22,09,02,6.20
2015,02,22,09,03,6.30
2015,02,22,09,04,6.30
2015,02,22,09,05,6.40
2015,02,22,09,06,6.50
2015,02,22,09,07,6.60
2015,02,22,09,08,6.70
2015,02,22,09,09,6.70
2015,02,22,09,10,6.80
2015,02,22,09,11,6.80
2015,02,22,09,12,6.90
2015,02,22,09,13,6.90
2015,02,22,09,14,7.00
2015,02,22,09,15,7.00
2015,02,22,09,16,7.00
2015,02,22,09,17,7.00
2015,02,22,09,18,7.00
2015,02,22,09,19,7.00
2015,02,22,09,20,7.10
2015,02,22,09,21,7.00
2015,02,22,09,22,7.00
2015,02,22,09,23,7.10
2015,02,22,09,24,7.10
2015,02,22,09,25,7.10
2015,02,22,09,26,7.10
2015,02,22,09,27,7.10
2015,02,22,09,28,7.10
2015,02,22,09,29,7.10
2015,02,22,09,30,7.10
2015,02,22,09,31,7.00
2015,02,22,09,32,7.00
2015,02,22,09,33,7.00
2015,02,22,09,34,7.00
2015,02,22,09,35,7.10
2015,02,22,09,36,7.10
2015,02,22,09,37,7.10
2015,02,22,09,38,7.10
2015,02,22,09,39,7.10
2015,02,22,09,40,7.20
2015,02,22,09,41,7.20
2015,02,22,09,42,7.20
2015,02,22,09,43,7.20
2015,02,22,09,44,7.20
2015,02,22,09,45,7.30
2015,02,22,09,46,7.30
2015,02,22,09,47,7.30
2015,02,22,09,48,7.30
2015,02,22,09,49,7.30
2015,02,22,09,50,7.20
2015,02,22,09,51,7.20
2015,02,22,09,52,7.20
2015,02,22,09,53,7.10
2015,02,22,09,54,7.10
2015,02,22,09,55,7.10
2015,02,22,09,56,7.00
2015,02,22,09,57,7.00
2015,02,22,09,58,7.00
2015,02,22,09,59,6.90
2015,02,22,10,00,6.90
2015,02,22,10,01,6.90
2015,02,22,10,02,7.00
2015,02,22,10,03,7.00
2015,02,22,10,04,7.00
2015,02,22,10,05,7.10
2015,02,22,10,06,7.10
2015,02,22,10,07,7.10
2015,02,22,10,08,7.10
2015,02,22,10,09,7.10
2015,02,22,10,10,7.10
2015,02,22,10,11,7.20
2015,02,22,10,12,7.20
2015,02,22,10,13,7.30
2015,02,22,10,14,7.30
2015,02,22,10,15,7.30
2015,02,22,10,16,7.30
2015,02,22,10,17,7.30
2015,02,22,10,18,7.30
2015,02,22,10,19,7.30
2015,02,22,10,20,7.40
2015,02,22,10,21,7.40
2015,02,22,10,22,7.40
2015,02,22,10,23,7.40
2015,02,22,10,24,7.50
2015,02,22,10,25,7.50
2015,02,22,10,26,7.50
2015,02,22,10,27,7.60
2015,02,22,10,28,7.60
2015,02,22,10,29,7.60
2015,02,22,10,30,7.60
2015,02,22,10,31,7.60
2015,02,22,10,32,7.60
2015,02,22,10,33,7.60
2015,02,22,10,34,7.60
2015,02,22,10,35,7.60
2015,02,22,10,36,7.60
2015,02,22,10,37,7.60
2015,02,22,10,38,7.60
2015,02,22,10,39,7.60
2015,02,22,10,40,7.60
2015,02,22,10,41,7.60
2015,02,22,10,42,7.70
2015,02,22,10,43,7.70
2015,02,22,10,44,7.70
2015,02,22,10,45,7.70
2015,02,22,10,46,7.70
2015,02,22,10,47,7.80
2015,02,22,10,48,7.80
2015,02,22,10,49,7.80
2015,02,22,10,50,7.80
2015,02,22,10,51,7.80
2015,02,22,10,52,7.80
2015,02,22,10,53,7.80
2015,02,22,10,54,7.80
2015,02,22,10,55,7.80
2015,02,22,10,56,7.80
2015,02,22,10,57,7.70
2015,02,22,10,58,7.70
2015,02,22,10,59,7.70
2015,02,22,11,00,7.70
2015,02,22,11,01,7.70
2015,02,22,11,02,7.70
2015,02,22,11,03,7.70
2015,02,22,11,04,7.70
2015,02,22,11,05,7.70
2015,02,22,11,06,7.80
2015,02,22,11,07,7.80
2015,02,22,11,08,7.80
2015,02,22,11,09,7.80
2015,02,22,11,10,7.80
2015,02,22,11,11,7.80
2015,02,22,11,12,7.80
2015,02,22,11,13,7.80
2015,02,22,11,14,7.70
2015,02,22,11,15,7.70
2015,02,22,11,16,7.70
2015,02,22,11,17,7.60
2015,02,22,11,18,7.60
2015,02,22,11,19,7.60
2015,02,22,11,20,7.60
2015,02,22,11,21,7.60
2015,02,22,11,22,7.60
2015,02,22,11,23,7.60
2015,02,22,11,24,7.60
2015,02,22,11,25,7.60
2015,02,22,11,26,7.60
2015,02,22,11,27,7.60
2015,02,22,11,28,7.60
2015,02,22,11,29,7.60
2015,02,22,11,30,7.60
2015,02,22,11,31,7.60
2015,02,22,11,32,7.60
2015,02,22,11,33,7.70
2015,02,22,11,34,7.70
2015,02,22,11,35,7.70
2015,02,22,11,36,7.70
2015,02,22,11,37,7.70
2015,02,22,11,38,7.70
2015,02,22,11,39,7.70
2015,02,22,11,40,7.80
2015,02,22,11,41,7.80
2015,02,22,11,42,7.80
2015,02,22,11,43,7.90
2015,02,22,11,44,7.90
2015,02,22,11,45,7.90
2015,02,22,11,46,8.00
2015,02,22,11,47,8.10
2015,02,22,11,48,8.10
2015,02,22,11,49,8.20
2015,02,22,11,50,8.20
2015,02,22,11,51,8.30
2015,02,22,11,52,8.30
2015,02,22,11,53,8.30
2015,02,22,11,54,8.30
2015,02,22,11,55,8.30
2015,02,22,11,56,8.20
2015,02,22,11,57,8.20
2015,02,22,11,58,8.10
2015,02,22,11,59,8.10
2015,02,22,12,00,8.00
2015,02,22,12,01,7.90
2015,02,22,12,02,7.90
2015,02,22,12,03,7.90
2015,02,22,12,04,7.80
2015,02,22,12,05,7.90
2015,02,22,12,06,7.90
2015,02,22,12,07,8.00
2015,02,22,12,08,8.00
2015,02,22,12,09,8.10
2015,02,22,12,10,8.10
2015,02,22,12,11,8.20
2015,02,22,12,12,8.20
2015,02,22,12,13,8.30
2015,02,22,12,14,8.40
2015,02,22,12,15,8.40
2015,02,22,12,16,8.40
2015,02,22,12,17,8.40
2015,02,22,12,18,8.40
2015,02,22,12,19,8.30
2015,02,22,12,20,8.30
2015,02,22,12,21,8.20
2015,02,22,12,22,8.20
2015,02,22,12,23,8.10
2015,02,22,12,24,8.10
2015,02,22,12,25,8.10
2015,02,22,12,26,8.10
2015,02,22,12,27,8.10
2015,02,22,12,28,8.00
2015,02,22,12,29,8.00
2015,02,22,12,30,8.00
2015,02,22,12,31,8.10
2015,02,22,12,32,8.00
2015,02,22,12,33,8.00
2015,02,22,12,34,8.10
2015,02,22,12,35,8.10
2015,02,22,12,36,8.10
2015,02,22,12,37,8.10
2015,02,22,12,38,8.10
2015,02,22,12,39,8.20
2015,02,22,12,40,8.20
2015,02,22,12,41,8.20
2015,02,22,12,42,8.20
2015,02,22,12,43,8.20
2015,02,22,12,44,8.20
2015,02,22,12,45,8.20
2015,02,22,12,46,8.20
2015,02,22,12,47,8.20
2015,02,22,12,48,8.20
2015,02,22,12,49,8.20
2015,02,22,12,50,8.20
2015,02,22,12,51,8.30
2015,02,22,12,52,8.30
2015,02,22,12,53,8.30
2015,02,22,12,54,8.30
2015,02,22,12,55,8.30
2015,02,22,12,56,8.30
2015,02,22,12,57,8.30
2015,02,22,12,58,8.30
2015,02,22,12,59,8.30
2015,02,22,13,00,8.20
2015,02,22,13,01,8.20
2015,02,22,13,02,8.20
2015,02,22,13,03,8.20
2015,02,22,13,04,8.20
2015,02,22,13,05,8.20
2015,02,22,13,06,8.20
2015,02,22,13,07,8.30
2015,02,22,13,08,8.30
2015,02,22,13,09,8.30
2015,02,22,13,10,8.40
2015,02,22,13,11,8.40
2015,02,22,13,12,8.50
2015,02,22,13,13,8.50
2015,02,22,13,14,8.60
2015,02,22,13,15,8.60
2015,02,22,13,16,8.70
2015,02,22,13,17,8.70
2015,02,22,13,18,8.70
2015,02,22,13,19,8.80
2015,02,22,13,20,8.80
2015,02,22,13,21,8.90
2015,02,22,13,22,8.90
2015,02,22,13,23,8.90
2015,02,22,13,24,8.90
2015,02,22,13,25,9.00
2015,02,22,13,26,9.10
2015,02,22,13,27,9.10
2015,02,22,13,28,9.20
2015,02,22,13,29,9.20
2015,02,22,13,30,9.20
2015,02,22,13,31,9.20
2015,02,22,13,32,9.20
2015,02,22,13,33,9.20
2015,02,22,13,34,9.10
2015,02,22,13,35,9.00
2015,02,22,13,36,9.00
2015,02,22,13,37,8.90
2015,02,22,13,38,8.80
2015,02,22,13,39,8.80
2015,02,22,13,40,8.80
2015,02,22,13,41,8.80
2015,02,22,13,42,8.80
2015,02,22,13,43,8.80
2015,02,22,13,44,8.80
2015,02,22,13,45,8.80
2015,02,22,13,46,8.80
2015,02,22,13,47,8.80
2015,02,22,13,48,8.80
2015,02,22,13,49,8.80
2015,02,22,13,50,8.70
2015,02,22,13,51,8.70
2015,02,22,13,52,8.60
2015,02,22,13,53,8.60
2015,02,22,13,54,8.50
2015,02,22,13,55,8.50
2015,02,22,13,56,8.50
2015,02,22,13,57,8.40
2015,02,22,13,58,8.40
2015,02,22,13,59,8.30
2015,02,22,14,00,8.30
2015,02,22,14,01,8.30
2015,02,22,14,02,8.30
2015,02,22,14,03,8.30
2015,02,22,14,04,8.30
2015,02,22,14,05,8.30
2015,02,22,14,06,8.30
2015,02,22,14,07,8.30
2015,02,22,14,08,8.20
2015,02,22,14,09,8.20
2015,02,22,14,10,8.20
2015,02,22,14,11,8.20
2015,02,22,14,12,8.20
2015,02,22,14,13,8.20
2015,02,22,14,14,8.20
2015,02,22,14,15,8.20
2015,02,22,14,16,8.20
2015,02,22,14,17,8.30
2015,02,22,14,18,8.30
2015,02,22,14,19,8.30
2015,02,22,14,20,8.30
2015,02,22,14,21,8.30
2015,02,22,14,22,8.30
2015,02,22,14,23,8.30
2015,02,22,14,24,8.30
2015,02,22,14,25,8.30
2015,02,22,14,26,8.30
2015,02,22,14,27,8.30
2015,02,22,14,28,8.20
2015,02,22,14,29,8.20
2015,02,22,14,30,8.20
2015,02,22,14,31,8.20
2015,02,22,14,32,8.20
2015,02,22,14,33,8.20
2015,02,22,14,34,8.20
2015,02,22,14,35,8.20
2015,02,22,14,36,8.20
2015,02,22,14,37,8.20
2015,02,22,14,38,8.20
2015,02,22,14,39,8.30
2015,02,22,14,40,8.30
2015,02,22,14,41,8.30
2015,02,22,14,42,8.30
2015,02,22,14,43,8.30
2015,02,22,14,44,8.30
2015,02,22,14,45,8.30
2015,02,22,14,46,8.40
2015,02,22,14,47,8.40
2015,02,22,14,48,8.40
2015,02,22,14,49,8.50
2015,02,22,14,50,8.50
2015,02,22,14,51,8.60
2015,02,22,14,52,8.60
2015,02,22,14,53,8.70
2015,02,22,14,54,8.70
2015,02,22,14,55,8.70
2015,02,22,14,56,8.70
2015,02,22,14,57,8.70
2015,02,22,14,58,8.70
2015,02,22,14,59,8.70
2015,02,22,15,00,8.70
2015,02,22,15,01,8.80
2015,02,22,15,02,8.80
2015,02,22,15,03,8.80
2015,02,22,15,04,8.80
2015,02,22,15,05,8.80
2015,02,22,15,06,8.80
2015,02,22,15,07,8.80
2015,02,22,15,08,8.80
2015,02,22,15,09,8.90
2015,02,22,15,10,8.90
2015,02,22,15,11,9.00
2015,02,22,15,12,9.00
2015,02,22,15,13,9.00
2015,02,22,15,14,9.10
2015,02,22,15,15,9.10
2015,02,22,15,16,9.10
2015,02,22,15,17,9.20
2015,02,22,15,18,9.20
2015,02,22,15,19,9.30
2015,02,22,15,20,9.40
2015,02,22,15,21,9.40
2015,02,22,15,22,9.50
2015,02,22,15,23,9.60
2015,02,22,15,24,9.60
2015,02,22,15,25,9.70
2015,02,22,15,26,9.70
2015,02,22,15,27,9.70
2015,02,22,15,28,9.70
2015,02,22,15,29,9.60
2015,02,22,15,30,9.60
2015,02,22,15,31,9.60
2015,02,22,15,32,9.50
2015,02,22,15,33,9.50
2015,02,22,15,34,9.40
2015,02,22,15,35,9.40
2015,02,22,15,36,9.30
2015,02,22,15,37,9.30
2015,02,22,15,38,9.20
2015,02,22,15,39,9.20
2015,02,22,15,40,9.20
2015,02,22,15,41,9.10
2015,02,22,15,42,9.10
2015,02,22,15,43,9.10
2015,02,22,15,44,9.10
2015,02,22,15,45,9.10
2015,02,22,15,46,9.10
2015,02,22,15,47,9.10
2015,02,22,15,48,9.10
2015,02,22,15,49,9.10
2015,02,22,15,50,9.10
2015,02,22,15,51,9.10
2015,02,22,15,52,9.10
2015,02,22,15,53,9.00
2015,02,22,15,54,9.00
2015,02,22,15,55,9.00
2015,02,22,15,56,9.00
2015,02,22,15,57,9.00
2015,02,22,15,58,8.90
2015,02,22,15,59,8.90
2015,02,22,16,00,8.90
2015,02,22,16,01,8.90
2015,02,22,16,02,8.90
2015,02,22,16,03,8.90
2015,02,22,16,04,8.90
2015,02,22,16,05,8.90
2015,02,22,16,06,8.90
2015,02,22,16,07,8.90
2015,02,22,16,08,8.90
2015,02,22,16,09,8.90
2015,02,22,16,10,8.90
2015,02,22,16,11,8.90
2015,02,22,16,12,8.90
2015,02,22,16,13,8.90
2015,02,22,16,14,8.90
2015,02,22,16,15,8.80
2015,02,22,16,16,8.80
2015,02,22,16,17,8.80
2015,02,22,16,18,8.80
2015,02,22,16,19,8.80
2015,02,22,16,20,8.80
2015,02,22,16,21,8.80
2015,02,22,16,22,8.80
2015,02,22,16,23,8.90
2015,02,22,16,24,8.90
2015,02,22,16,25,9.00
2015,02,22,16,26,9.10
2015,02,22,16,27,9.10
2015,02,22,16,28,9.20
2015,02,22,16,29,9.20
2015,02,22,16,30,9.30
2015,02,22,16,31,9.30
2015,02,22,16,32,9.30
2015,02,22,16,33,9.30
2015,02,22,16,34,9.40
2015,02,22,16,35,9.40
2015,02,22,16,36,9.40
2015,02,22,16,37,9.40
2015,02,22,16,38,9.40
2015,02,22,16,39,9.40
2015,02,22,16,40,9.40
2015,02,22,16,41,9.40
2015,02,22,16,42,9.40
2015,02,22,16,43,9.40
2015,02,22,16,44,9.40
2015,02,22,16,45,9.40
2015,02,22,16,46,9.40
2015,02,22,16,47,9.40
2015,02,22,16,48,9.40
2015,02,22,16,49,9.40
2015,02,22,16,50,9.40
2015,02,22,16,51,9.30
2015,02,22,16,52,9.30
2015,02,22,16,53,9.30
2015,02,22,16,54,9.30
2015,02,22,16,55,9.30
2015,02,22,16,56,9.20
2015,02,22,16,57,9.20
2015,02,22,16,58,9.20
2015,02,22,16,59,9.10
2015,02,22,17,00,9.10
2015,02,22,17,01,9.00
2015,02,22,17,02,9.00
2015,02,22,17,03,9.00
2015,02,22,17,04,8.90
2015,02,22,17,05,8.90
2015,02,22,17,06,8.80
2015,02,22,17,07,8.80
2015,02,22,17,08,8.80
2015,02,22,17,09,8.70
2015,02,22,17,10,8.60
2015,02,22,17,11,8.60
2015,02,22,17,12,8.50
2015,02,22,17,13,8.40
2015,02,22,17,14,8.40
2015,02,22,17,15,8.30
2015,02,22,17,16,8.30
2015,02,22,17,17,8.20
2015,02,22,17,18,8.10
2015,02,22,17,19,8.10
2015,02,22,17,20,8.00
2015,02,22,17,21,8.00
2015,02,22,17,22,7.90
2015,02,22,17,23,7.90
2015,02,22,17,24,7.80
2015,02,22,17,25,7.80
2015,02,22,17,26,7.70
2015,02,22,17,27,7.70
2015,02,22,17,28,7.70
2015,02,22,17,29,7.60
2015,02,22,17,30,7.60
2015,02,22,17,31,7.60
2015,02,22,17,32,7.50
2015,02,22,17,33,7.50
2015,02,22,17,34,7.50
2015,02,22,17,35,7.40
2015,02,22,17,36,7.40
2015,02,22,17,37,7.30
2015,02,22,17,38,7.30
2015,02,22,17,39,7.30
2015,02,22,17,40,7.20
2015,02,22,17,41,7.20
2015,02,22,17,42,7.20
2015,02,22,17,43,7.20
2015,02,22,17,44,7.10
2015,02,22,17,45,7.10
2015,02,22,17,46,7.10
2015,02,22,17,47,7.00
2015,02,22,17,48,7.00
2015,02,22,17,49,6.90
2015,02,22,17,50,6.90
2015,02,22,17,51,6.90
2015,02,22,17,52,6.90
2015,02,22,17,53,6.90
2015,02,22,17,54,6.80
2015,02,22,17,55,6.80
2015,02,22,17,56,6.80
2015,02,22,17,57,6.80
2015,02,22,17,58,6.80
2015,02,22,17,59,6.80
2015,02,22,18,00,6.80
2015,02,22,18,01,6.80
2015,02,22,18,02,6.70
2015,02,22,18,03,6.70
2015,02,22,18,04,6.70
2015,02,22,18,05,6.70
2015,02,22,18,06,6.70
2015,02,22,18,07,6.60
2015,02,22,18,08,6.60